Meteo orario Ali Bayramli

Oggi, 29 Ottobre, Giovedi

Tempo Temperatura Precipitazioni Vento Pressione Umidità
00:00 +15°C° 0 mm 0 m/s 765 mm Hg 92%
01:00 +15°C° 0 mm 0 m/s 764 mm Hg 92%
02:00 +16°C° 0 mm 1 m/s 764 mm Hg 92%
03:00 +15°C° 0 mm 1 m/s 764 mm Hg 91%
04:00 +15°C° 0 mm 1 m/s 764 mm Hg 92%
05:00 +15°C° 0 mm 1 m/s 764 mm Hg 93%
06:00 +14°C° 0 mm 1 m/s 764 mm Hg 93%
07:00 +16°C° 0 mm 1 m/s 764 mm Hg 87%
08:00 +18°C° 0 mm 1 m/s 764 mm Hg 80%
09:00 +20°C° 0 mm 1 m/s 764 mm Hg 74%
10:00 +21°C° 0 mm 1 m/s 764 mm Hg 68%
11:00 +21°C° 0 mm 2 m/s 763 mm Hg 62%
12:00 +23°C° 0 mm 2 m/s 763 mm Hg 55%
13:00 +24°C° 0 mm 2 m/s 762 mm Hg 53%
14:00 +24°C° 0 mm 3 m/s 762 mm Hg 52%
15:00 +25°C° 0 mm 3 m/s 762 mm Hg 50%
16:00 +22°C° 0 mm 4 m/s 762 mm Hg 57%
17:00 +21°C° 0 mm 4 m/s 762 mm Hg 64%
18:00 +20°C° 0 mm 4 m/s 762 mm Hg 71%
19:00 +19°C° 0 mm 4 m/s 762 mm Hg 76%
20:00 +19°C° 0 mm 3 m/s 762 mm Hg 80%
21:00 +18°C° 0 mm 2 m/s 762 mm Hg 85%
22:00 +18°C° 0 mm 2 m/s 762 mm Hg 88%
23:00 +17°C° 0 mm 2 m/s 761 mm Hg 90%

Domani, 30 Ottobre, Venerdi

Tempo Temperatura Precipitazioni Vento Pressione Umidità
00:00 +18°C° 0 mm 1 m/s 761 mm Hg 92%
01:00 +18°C° 0 mm 1 m/s 761 mm Hg 92%
02:00 +18°C° 0 mm 1 m/s 760 mm Hg 91%
03:00 +18°C° 0 mm 1 m/s 760 mm Hg 90%
04:00 +18°C° 0 mm 1 m/s 760 mm Hg 91%
05:00 +18°C° 0 mm 1 m/s 760 mm Hg 92%
06:00 +16°C° 0 mm 2 m/s 760 mm Hg 93%
07:00 +18°C° 0 mm 2 m/s 760 mm Hg 87%
08:00 +19°C° 0 mm 2 m/s 760 mm Hg 82%
09:00 +20°C° 0 mm 2 m/s 760 mm Hg 76%
10:00 +22°C° 0 mm 3 m/s 760 mm Hg 66%
11:00 +24°C° 0 mm 3 m/s 759 mm Hg 56%
12:00 +26°C° 0 mm 3 m/s 759 mm Hg 46%
13:00 +26°C° 0 mm 3 m/s 758 mm Hg 43%
14:00 +27°C° 0 mm 3 m/s 758 mm Hg 41%
15:00 +28°C° 0 mm 3 m/s 758 mm Hg 38%
16:00 +26°C° 0 mm 2 m/s 758 mm Hg 45%
17:00 +24°C° 0 mm 2 m/s 758 mm Hg 53%
18:00 +23°C° 0 mm 2 m/s 759 mm Hg 60%
19:00 +21°C° 0 mm 2 m/s 759 mm Hg 68%
20:00 +20°C° 0 mm 2 m/s 759 mm Hg 76%
21:00 +19°C° 0 mm 3 m/s 760 mm Hg 83%
22:00 +19°C° 0 mm 3 m/s 760 mm Hg 84%
23:00 +19°C° 0 mm 3 m/s 759 mm Hg 85%

Dopodomani, 31 Ottobre, Sabato

Tempo Temperatura Precipitazioni Vento Pressione Umidità
00:00 +19°C° 0 mm 3 m/s 759 mm Hg 86%
01:00 +18°C° 0 mm 3 m/s 759 mm Hg 86%
02:00 +18°C° 0 mm 2 m/s 759 mm Hg 87%
03:00 +17°C° 0 mm 2 m/s 759 mm Hg 88%
04:00 +18°C° 0 mm 1 m/s 759 mm Hg 89%
05:00 +18°C° 0 mm 1 m/s 759 mm Hg 89%
06:00 +18°C° 0 mm 1 m/s 759 mm Hg 90%
07:00 +19°C° 0 mm 1 m/s 759 mm Hg 84%
08:00 +20°C° 0 mm 1 m/s 759 mm Hg 78%
09:00 +22°C° 0 mm 1 m/s 759 mm Hg 72%
10:00 +23°C° 0 mm 1 m/s 759 mm Hg 65%
11:00 +24°C° 0 mm 1 m/s 758 mm Hg 58%
12:00 +26°C° 0 mm 1 m/s 758 mm Hg 52%
13:00 +26°C° 0 mm 1 m/s 757 mm Hg 49%
14:00 +27°C° 0 mm 2 m/s 757 mm Hg 46%
15:00 +28°C° 0 mm 2 m/s 756 mm Hg 43%
16:00 +26°C° 0 mm 2 m/s 757 mm Hg 48%
17:00 +25°C° 0 mm 2 m/s 757 mm Hg 53%
18:00 +23°C° 0 mm 2 m/s 757 mm Hg 58%
19:00 +21°C° 0 mm 2 m/s 757 mm Hg 61%
20:00 +21°C° 0 mm 2 m/s 757 mm Hg 64%
21:00 +20°C° 0 mm 2 m/s 757 mm Hg 67%
22:00 +20°C° 0 mm 2 m/s 757 mm Hg 67%
23:00 +20°C° 0 mm 2 m/s 757 mm Hg 68%

1 Novenbre, Domenica

Tempo Temperatura Precipitazioni Vento Pressione Umidità
00:00 +19°C° 0 mm 2 m/s 756 mm Hg 68%
01:00 +19°C° 0 mm 2 m/s 756 mm Hg 67%
02:00 +19°C° 0 mm 2 m/s 756 mm Hg 66%
03:00 +19°C° 0 mm 2 m/s 756 mm Hg 65%
04:00 +18°C° 0 mm 2 m/s 757 mm Hg 66%
05:00 +18°C° 0 mm 2 m/s 757 mm Hg 66%
06:00 +18°C° 0 mm 3 m/s 757 mm Hg 66%
07:00 +19°C° 0 mm 3 m/s 757 mm Hg 58%
08:00 +21°C° 0 mm 3 m/s 757 mm Hg 51%
09:00 +23°C° 0 mm 4 m/s 758 mm Hg 43%
10:00 +25°C° 0 mm 3 m/s 758 mm Hg 39%
11:00 +27°C° 0 mm 3 m/s 757 mm Hg 35%
12:00 +29°C° 0 mm 3 m/s 757 mm Hg 31%
13:00 +28°C° 0 mm 4 m/s 757 mm Hg 36%
14:00 +27°C° 0 mm 4 m/s 757 mm Hg 41%
15:00 +27°C° 0 mm 5 m/s 757 mm Hg 46%
16:00 +25°C° 0 mm 5 m/s 758 mm Hg 55%
17:00 +22°C° 0 mm 4 m/s 758 mm Hg 63%
18:00 +20°C° 0 mm 4 m/s 758 mm Hg 72%
19:00 +19°C° 0 mm 4 m/s 759 mm Hg 76%
20:00 +19°C° 0 mm 3 m/s 759 mm Hg 80%
21:00 +18°C° 0 mm 3 m/s 759 mm Hg 83%
22:00 +18°C° 0 mm 2 m/s 759 mm Hg 85%
23:00 +17°C° 0 mm 2 m/s 759 mm Hg 87%

2 Novenbre, Lunedi

Tempo Temperatura Precipitazioni Vento Pressione Umidità
00:00 +17°C° 0 mm 2 m/s 759 mm Hg 89%
01:00 +16°C° 0 mm 1 m/s 759 mm Hg 90%
02:00 +16°C° 0 mm 1 m/s 759 mm Hg 90%
03:00 +16°C° 0 mm 1 m/s 759 mm Hg 91%
04:00 +15°C° 0 mm 1 m/s 760 mm Hg 91%
05:00 +15°C° 0 mm 1 m/s 760 mm Hg 92%
06:00 +15°C° 0 mm 1 m/s 760 mm Hg 92%
07:00 +16°C° 0 mm 1 m/s 760 mm Hg 86%
08:00 +19°C° 0 mm 1 m/s 761 mm Hg 80%
09:00 +20°C° 0 mm 2 m/s 761 mm Hg 74%
10:00 +21°C° 0 mm 2 m/s 761 mm Hg 66%
11:00 +24°C° 0 mm 2 m/s 761 mm Hg 58%
12:00 +26°C° 0 mm 2 m/s 761 mm Hg 50%
13:00 +26°C° 0 mm 3 m/s 761 mm Hg 49%
14:00 +26°C° 0 mm 5 m/s 761 mm Hg 49%
15:00 +24°C° 0 mm 6 m/s 761 mm Hg 48%
16:00 +23°C° 0 mm 6 m/s 762 mm Hg 55%
17:00 +21°C° 0 mm 7 m/s 762 mm Hg 62%
18:00 +18°C° 0 mm 7 m/s 763 mm Hg 68%
19:00 +18°C° 0 mm 7 m/s 763 mm Hg 66%
20:00 +18°C° 0 mm 7 m/s 763 mm Hg 63%
21:00 +19°C° 0 mm 6 m/s 764 mm Hg 60%
22:00 +19°C° 0 mm 6 m/s 764 mm Hg 61%
23:00 +17°C° 0 mm 5 m/s 764 mm Hg 61%

3 Novenbre, Martedi

Tempo Temperatura Precipitazioni Vento Pressione Umidità
00:00 +18°C° 0 mm 4 m/s 764 mm Hg 62%
01:00 +18°C° 0 mm 4 m/s 764 mm Hg 65%
02:00 +17°C° 0 mm 3 m/s 764 mm Hg 67%
03:00 +17°C° 0 mm 3 m/s 764 mm Hg 70%
04:00 +16°C° 0 mm 2 m/s 764 mm Hg 71%
05:00 +16°C° 0 mm 2 m/s 764 mm Hg 72%
06:00 +16°C° 0 mm 1 m/s 764 mm Hg 73%
07:00 +18°C° 0 mm 1 m/s 765 mm Hg 68%
08:00 +19°C° 0 mm 1 m/s 765 mm Hg 63%
09:00 +20°C° 0 mm 1 m/s 765 mm Hg 58%
10:00 +21°C° 0 mm 1 m/s 765 mm Hg 54%
11:00 +22°C° 0 mm 1 m/s 765 mm Hg 51%
12:00 +23°C° 0 mm 1 m/s 765 mm Hg 47%
13:00 +24°C° 0 mm 2 m/s 764 mm Hg 45%
14:00 +24°C° 0 mm 2 m/s 764 mm Hg 44%
15:00 +24°C° 0 mm 3 m/s 764 mm Hg 43%
16:00 +22°C° 0 mm 3 m/s 764 mm Hg 47%
17:00 +20°C° 0 mm 3 m/s 765 mm Hg 51%
18:00 +19°C° 0 mm 3 m/s 765 mm Hg 54%
19:00 +19°C° 0 mm 3 m/s 765 mm Hg 57%
20:00 +18°C° 0 mm 2 m/s 765 mm Hg 60%
21:00 +18°C° 0 mm 2 m/s 765 mm Hg 64%
22:00 +18°C° 0 mm 2 m/s 765 mm Hg 66%
23:00 +18°C° 0 mm 1 m/s 764 mm Hg 68%
Mostrare altro

Abbiamo bisogno del tuo consenso

Meteoprog e i nostri fornitori di servizi possono memorizzare e accedere a dati personali come cookie, identificatori di dispositivi o altre tecnologie simili sul tuo dispositivo e possono elaborare tali dati per personalizzare i contenuti e gli annunci, nonché fornire funzionalità dei social media e analizzarne il traffico.

  • Archiviare e/o accedere alle informazioni sul tuo dispositivo

    Cookie, identificatori di dispositivi o altre informazioni possono essere memorizzati o resi accessibili sul tuo dispositivo per le finalità sopra indicate.

  • Annunci e contenuti personalizzati, misurazione di annunci e contenuti, approfondimenti sul pubblico e sviluppo di prodotti

    Gli annunci e i contenuti possono essere personalizzati in base a un profilo. È possibile aggiungere più dati per personalizzare meglio annunci e contenuti. È possibile misurare il rendimento degli annunci e dei contenuti. È possibile ricavare informazioni sul pubblico che ha visto gli annunci e i contenuti. Tali dati possono essere utilizzati per sviluppare o migliorare l'esperienza, i sistemi e il software dell'utente.

Cliccando su “Accetto”, acconsenti all'uso di cookie, identificatori di dispositivo, web beacon o altre tecnologie simili. Puoi modificare le impostazioni nel browser del tuo dispositivo.

Per determinati scopi, è possibile fare affidamento su interessi legali, piuttosto che sul consenso. Puoi approfondire questo argomento consultando la nostra Informativa sulla privacy e sui cookie.